When you browse on this site, cookies collect data to enhance your experience and personalize the content and advertising you see.
Visit our Privacy Policy to learn more. By continuing to use the site, you agree to this use of cookies and data.
  • în România
  • Lista ţărilor
  • Pe 7 zile
  • Temperatura apei
  • Hartă satelitară
  • Meteo pe hartă
  • Widget-uri
  • user-avatar
    Intrare

    Meteo pe oră la Yulara

    Astăzi, 21 Aprilie, Duminică

    Timp Temperatura Precipitaţii Vânt Presiune Umiditate
    00:00 +18°C° 0 mm 10 m/s 718 mmHg 65%
    01:00 +17°C° 0 mm 10 m/s 718 mmHg 66%
    02:00 +16°C° 0 mm 10 m/s 719 mmHg 66%
    03:00 +15°C° 0 mm 9 m/s 719 mmHg 67%
    04:00 +15°C° 0 mm 9 m/s 719 mmHg 66%
    05:00 +13°C° 0 mm 9 m/s 719 mmHg 65%
    06:00 +13°C° 0 mm 8 m/s 720 mmHg 64%
    07:00 +15°C° 0 mm 8 m/s 720 mmHg 58%
    08:00 +16°C° 0 mm 8 m/s 721 mmHg 52%
    09:00 +16°C° 0 mm 8 m/s 722 mmHg 38%
    10:00 +18°C° 0 mm 7 m/s 721 mmHg 34%
    11:00 +21°C° 0 mm 7 m/s 721 mmHg 31%
    12:00 +23°C° 0 mm 6 m/s 721 mmHg 27%
    13:00 +23°C° 0 mm 6 m/s 721 mmHg 26%
    14:00 +24°C° 0 mm 6 m/s 720 mmHg 24%
    15:00 +26°C° 0 mm 6 m/s 720 mmHg 23%
    16:00 +24°C° 0 mm 7 m/s 720 mmHg 24%
    17:00 +23°C° 0 mm 7 m/s 720 mmHg 25%
    18:00 +22°C° 0 mm 7 m/s 720 mmHg 26%
    19:00 +21°C° 0 mm 7 m/s 721 mmHg 28%
    20:00 +20°C° 0 mm 7 m/s 721 mmHg 30%
    21:00 +18°C° 0 mm 7 m/s 721 mmHg 32%
    22:00 +17°C° 0 mm 7 m/s 721 mmHg 33%
    23:00 +16°C° 0 mm 8 m/s 721 mmHg 35%

    Mâine, 22 Aprilie, Luni

    Timp Temperatura Precipitaţii Vânt Presiune Umiditate
    00:00 +16°C° 0 mm 8 m/s 721 mmHg 37%
    01:00 +15°C° 0 mm 8 m/s 721 mmHg 39%
    02:00 +15°C° 0 mm 7 m/s 721 mmHg 40%
    03:00 +14°C° 0 mm 7 m/s 721 mmHg 42%
    04:00 +12°C° 0 mm 7 m/s 722 mmHg 47%
    05:00 +12°C° 0 mm 7 m/s 722 mmHg 53%
    06:00 +11°C° 0 mm 7 m/s 722 mmHg 58%
    07:00 +12°C° 0 mm 8 m/s 722 mmHg 54%
    08:00 +13°C° 0 mm 8 m/s 723 mmHg 51%
    09:00 +16°C° 0 mm 9 m/s 723 mmHg 47%
    10:00 +18°C° 0 mm 8 m/s 723 mmHg 41%
    11:00 +21°C° 0 mm 7 m/s 723 mmHg 36%
    12:00 +23°C° 0 mm 7 m/s 722 mmHg 30%
    13:00 +24°C° 0 mm 6 m/s 722 mmHg 28%
    14:00 +26°C° 0 mm 5 m/s 721 mmHg 26%
    15:00 +27°C° 0 mm 5 m/s 721 mmHg 24%
    16:00 +26°C° 0 mm 5 m/s 721 mmHg 25%
    17:00 +23°C° 0 mm 5 m/s 721 mmHg 25%
    18:00 +22°C° 0 mm 5 m/s 721 mmHg 26%
    19:00 +21°C° 0 mm 5 m/s 722 mmHg 28%
    20:00 +20°C° 0 mm 5 m/s 722 mmHg 30%
    21:00 +17°C° 0 mm 6 m/s 723 mmHg 32%
    22:00 +17°C° 0 mm 6 m/s 723 mmHg 34%
    23:00 +16°C° 0 mm 6 m/s 723 mmHg 37%

    Poimâine, 23 Aprilie, Marţi

    Timp Temperatura Precipitaţii Vânt Presiune Umiditate
    00:00 +15°C° 0 mm 6 m/s 723 mmHg 40%
    01:00 +14°C° 0 mm 6 m/s 722 mmHg 43%
    02:00 +14°C° 0 mm 5 m/s 722 mmHg 46%
    03:00 +13°C° 0 mm 5 m/s 722 mmHg 49%
    04:00 +13°C° 0 mm 5 m/s 722 mmHg 50%
    05:00 +12°C° 0 mm 5 m/s 722 mmHg 51%
    06:00 +12°C° 0 mm 5 m/s 722 mmHg 53%
    07:00 +14°C° 0 mm 5 m/s 723 mmHg 50%
    08:00 +16°C° 0 mm 6 m/s 723 mmHg 47%
    09:00 +19°C° 0 mm 6 m/s 724 mmHg 44%
    10:00 +21°C° 0 mm 6 m/s 723 mmHg 38%
    11:00 +23°C° 0 mm 6 m/s 723 mmHg 33%
    12:00 +25°C° 0 mm 5 m/s 723 mmHg 28%
    13:00 +26°C° 0 mm 5 m/s 722 mmHg 26%
    14:00 +27°C° 0 mm 5 m/s 721 mmHg 23%
    15:00 +28°C° 0 mm 5 m/s 721 mmHg 21%
    16:00 +27°C° 0 mm 5 m/s 721 mmHg 24%
    17:00 +26°C° 0 mm 4 m/s 721 mmHg 26%
    18:00 +25°C° 0 mm 4 m/s 721 mmHg 29%
    19:00 +23°C° 0 mm 4 m/s 721 mmHg 32%
    20:00 +22°C° 0 mm 5 m/s 722 mmHg 36%
    21:00 +21°C° 0 mm 5 m/s 723 mmHg 40%
    22:00 +20°C° 0 mm 5 m/s 723 mmHg 43%
    23:00 +20°C° 0 mm 5 m/s 723 mmHg 46%

    24 Aprilie, Miercuri

    Timp Temperatura Precipitaţii Vânt Presiune Umiditate
    00:00 +20°C° 0 mm 5 m/s 723 mmHg 49%
    01:00 +19°C° 0 mm 5 m/s 722 mmHg 53%
    02:00 +19°C° 0 mm 5 m/s 722 mmHg 57%
    03:00 +17°C° 0 mm 5 m/s 722 mmHg 62%
    04:00 +17°C° 0 mm 5 m/s 722 mmHg 62%
    05:00 +17°C° 0 mm 5 m/s 722 mmHg 63%
    06:00 +16°C° 0 mm 5 m/s 722 mmHg 63%
    07:00 +19°C° 0 mm 6 m/s 723 mmHg 57%
    08:00 +21°C° 0 mm 7 m/s 723 mmHg 51%
    09:00 +23°C° 0 mm 8 m/s 724 mmHg 45%
    10:00 +24°C° 0 mm 7 m/s 724 mmHg 40%
    11:00 +27°C° 0 mm 7 m/s 723 mmHg 35%
    12:00 +28°C° 0 mm 6 m/s 723 mmHg 31%
    13:00 +29°C° 0 mm 6 m/s 723 mmHg 28%
    14:00 +30°C° 0 mm 7 m/s 722 mmHg 25%
    15:00 +30°C° 0 mm 7 m/s 721 mmHg 23%
    16:00 +29°C° 0 mm 6 m/s 721 mmHg 24%
    17:00 +28°C° 0 mm 6 m/s 721 mmHg 25%
    18:00 +26°C° 0 mm 5 m/s 722 mmHg 27%
    19:00 +25°C° 0 mm 5 m/s 722 mmHg 29%
    20:00 +23°C° 0 mm 5 m/s 722 mmHg 31%
    21:00 +22°C° 0 mm 5 m/s 723 mmHg 33%
    22:00 +21°C° 0 mm 5 m/s 723 mmHg 36%
    23:00 +20°C° 0 mm 5 m/s 723 mmHg 38%

    25 Aprilie, Joi

    Timp Temperatura Precipitaţii Vânt Presiune Umiditate
    00:00 +20°C° 0 mm 5 m/s 722 mmHg 41%
    01:00 +19°C° 0 mm 5 m/s 722 mmHg 43%
    02:00 +17°C° 0 mm 5 m/s 722 mmHg 44%
    03:00 +17°C° 0 mm 5 m/s 721 mmHg 46%
    04:00 +17°C° 0 mm 5 m/s 722 mmHg 48%
    05:00 +16°C° 0 mm 5 m/s 722 mmHg 50%
    06:00 +16°C° 0 mm 5 m/s 722 mmHg 51%
    07:00 +19°C° 0 mm 5 m/s 722 mmHg 49%
    08:00 +21°C° 0 mm 6 m/s 723 mmHg 47%
    09:00 +23°C° 0 mm 6 m/s 723 mmHg 45%
    10:00 +24°C° 0 mm 6 m/s 723 mmHg 41%
    11:00 +27°C° 0 mm 6 m/s 723 mmHg 37%
    12:00 +28°C° 0 mm 6 m/s 722 mmHg 33%
    13:00 +29°C° 0 mm 6 m/s 721 mmHg 31%
    14:00 +29°C° 0 mm 6 m/s 721 mmHg 29%
    15:00 +30°C° 0 mm 6 m/s 720 mmHg 27%
    16:00 +29°C° 0 mm 6 m/s 720 mmHg 29%
    17:00 +28°C° 0 mm 6 m/s 721 mmHg 32%
    18:00 +27°C° 0 mm 6 m/s 721 mmHg 35%
    19:00 +26°C° 0 mm 6 m/s 721 mmHg 37%
    20:00 +25°C° 0 mm 5 m/s 722 mmHg 40%
    21:00 +23°C° 0 mm 5 m/s 722 mmHg 42%
    22:00 +23°C° 0 mm 5 m/s 722 mmHg 43%
    23:00 +22°C° 0 mm 5 m/s 722 mmHg 44%

    26 Aprilie, Vineri

    Timp Temperatura Precipitaţii Vânt Presiune Umiditate
    00:00 +22°C° 0 mm 5 m/s 722 mmHg 45%
    01:00 +21°C° 0 mm 5 m/s 721 mmHg 49%
    02:00 +21°C° 0 mm 5 m/s 721 mmHg 54%
    03:00 +20°C° 0 mm 5 m/s 721 mmHg 58%
    04:00 +20°C° 0 mm 5 m/s 721 mmHg 59%
    05:00 +19°C° 0 mm 5 m/s 721 mmHg 61%
    06:00 +19°C° 0 mm 5 m/s 722 mmHg 62%
    07:00 +21°C° 0 mm 6 m/s 722 mmHg 58%
    08:00 +22°C° 0 mm 7 m/s 723 mmHg 53%
    09:00 +24°C° 0 mm 8 m/s 723 mmHg 48%
    10:00 +26°C° 0 mm 8 m/s 723 mmHg 44%
    11:00 +28°C° 0 mm 8 m/s 723 mmHg 39%
    12:00 +29°C° 0 mm 8 m/s 722 mmHg 35%
    13:00 +29°C° 0 mm 8 m/s 722 mmHg 35%
    14:00 +29°C° 0 mm 8 m/s 721 mmHg 35%
    15:00 +29°C° 0 mm 8 m/s 721 mmHg 35%
    16:00 +28°C° 0 mm 7 m/s 721 mmHg 36%
    17:00 +28°C° 0 mm 7 m/s 722 mmHg 37%
    18:00 +27°C° 0 mm 7 m/s 722 mmHg 38%
    19:00 +26°C° 0 mm 7 m/s 722 mmHg 42%
    20:00 +24°C° 0 mm 8 m/s 723 mmHg 45%
    21:00 +24°C° 0 mm 8 m/s 723 mmHg 48%
    22:00 +23°C° 0 mm 8 m/s 723 mmHg 49%
    23:00 +22°C° 0 mm 7 m/s 723 mmHg 51%
    Arată mai mult